SCP
0 0 0 0 0 0 0 0 -0 -0 -0 -0 -0 -0 -0 -0 0 0 0 0 -0 -0 -0 -0 -0 -0 -0 -0 -0 -0 -0 -0 -0
0 0 0 0 0 0 0 0 -0 -0 -0 -0 -0 -0 -0 0 0 0 0 0 -0 -0 -0 -0 -0 -0 -0 -0 -0 -0 -0 -0 -0
0 0 -0 -0 0 0 0 0 0 -0 -0 -0 -0 -0 0 0 0 0 0 0 -0 -0 -0 -0 -0 -0 -0 -0 -0 -0 -0 -0 -0
-0 -0 -0 0 0 0 0 0 0 0 -0 -0 -0 0 0 0 0 0 0 0 0 -0 -0 -0 -0 -0 -0 -0 -0 -0 -0 -0 -0
0 0 0 0 0 0 0 0 0 0 0 0 -0 0 0 0 0 0 0 0 0 0 0 0 0 0 0 0 0 -0 -0 -0 -0
0 0 0 0 0 0 0 0 0 0 0 0 0 0 0 0 0 0 0 0 0 0 0 0 0 0 0 0 0 0 0 0 0
0 0 0 0 0 0 0 0 0 0 0 0 0 0 0 0 0 0 0 0 0 0 0 0 0 0 0 0 0 0 0 0 0
0 0 0 0 0 0 0 0 0 0 0 0 0 0 0 0 0 0 0 0 0 0 0 0 0 0 0 0 0 0 0 0 0
0 0 0 0 0 0 0 0 0 0 0 0 0 0 0 0 0 0 0 0 0 0 0 0 0 0 0 0 0 0 0 0 0
0 0 0 0 0 0 0 0 0 0 0 0 0 0 0 0 0 0 0 0 0 0 0 0 0 0 0 0 0 0 0 0 0
0 0 0 0 0 0 0 0 0 0 0 0 0 0 0 0 0 0 0 0 0 0 0 0 0 0 0 0 0 0 0 0 0
0 0 0 0 0 0 0 0 0 0 0 0 0 0 0 0 0 0 0 0 0 0 0 0 0 0 0 0 0 0 0 0 0
0 0 0 0 0 0 0 0 0 0 0 0 0 0 0 0 0 0 0 0 0 0 0 0 0 0 0 0 0 0 0 0 0
0 0 0 0 0 0 0 0 0 0 0 0 0 0 0 0 0 0 0 -0 0 0 -0 0 0 0 0 0 0 0 0 0 0
0 0 0 0 0 0 0 0 0 0 0 0 0 0 0 0 0 0 0 0 0 0 -0 0 -0 -0 -0 0 0 0 0 0 0
0 0 0 0 0 0 0 0 0 0 0 0 0 0 0 0 0 0 0 0 0 0 0 -0 -0 -0 -0 -0 0 0 0 0 0
0 0 0 0 0 0 0 0 0 0 0 0 0 0 0 0 0 0 0 0 0 0 0 0 0 0 0 0 0 0 0 0 0
0 0 0 0 0 0 0 0 0 0 0 0 0 0 0 0 0 0 0 0 0 0 0 0 0 0 0 0 0 0 0 0 0
0 0 0 0 0 0 0 0 0 0 0 0 0 0 0 0 0 0 0 0 0 0 0 0 0 0 0 0 0 0 0 0 0
0 0 0 0 0 0 0 0 0 0 0 0 0 0 0 0 0 0 0 0 0 0 0 0 0 0 0 0 0 0 0 0 0
Wind_Speed_500mb
30 31 31 30 29 26 24 29 31 27 25 27 26 29 30 29 32 36 38 43 38 34 32 36 39 38 31 27 26 29 29 28 29
26 26 24 23 23 22 25 28 30 26 21 22 23 27 27 26 29 32 35 35 37 40 37 30 31 37 37 33 27 24 23 21 20
21 20 20 20 22 24 27 29 29 25 16 16 15 18 18 19 25 28 32 31 29 32 38 33 29 26 32 34 34 31 27 24 23
19 18 19 21 22 24 25 27 26 23 13 9 9 13 17 18 23 24 30 27 27 26 25 33 30 29 24 26 31 30 30 29 26
20 19 20 22 22 22 24 24 25 22 15 15 17 21 23 23 23 25 28 28 27 26 24 19 20 25 28 28 23 26 24 23 24
21 21 23 23 24 26 28 28 25 23 25 28 29 30 34 31 30 33 30 29 29 27 24 21 20 20 20 21 23 20 20 21 21
20 24 28 29 29 30 30 31 29 26 31 32 31 34 36 36 36 38 36 33 32 30 28 25 23 20 19 17 16 17 16 15 13
22 28 32 33 30 32 31 31 30 28 28 29 29 31 32 34 34 35 34 36 35 35 35 32 28 23 20 15 13 12 10 13 12
25 29 32 33 34 31 28 25 25 24 23 24 25 27 29 30 30 30 29 29 29 29 30 31 30 27 25 21 15 10 8 8 9
26 28 30 30 31 28 26 23 21 20 20 19 20 23 25 26 26 25 24 24 25 26 27 27 28 28 27 25 21 15 10 4 1
26 29 28 29 26 25 22 19 16 15 14 15 15 18 19 21 22 21 19 19 21 23 25 25 25 25 24 23 22 19 14 7 3
25 28 29 27 25 22 20 18 14 11 10 9 11 14 17 20 23 21 17 14 15 18 23 25 25 26 28 27 23 20 17 11 6
24 26 29 27 24 21 16 13 12 10 6 1 5 10 14 16 21 19 17 18 14 13 21 24 24 29 32 31 29 25 22 19 15
26 27 31 29 24 21 17 12 9 7 6 4 4 9 12 15 15 16 18 17 11 17 25 26 28 31 34 35 35 32 29 25 22
30 29 30 28 25 22 18 15 13 10 7 5 4 6 10 17 17 16 14 14 15 20 25 30 35 39 40 42 36 39 38 32 28
33 30 29 27 27 24 21 18 14 11 11 12 13 14 7 10 18 17 14 12 15 20 23 24 28 36 40 45 42 41 41 40 34
36 35 32 30 29 27 23 19 17 15 16 17 20 11 21 14 12 18 20 17 17 19 20 24 28 25 26 33 42 47 45 43 44
38 36 33 27 26 23 22 22 21 19 19 19 18 9 8 15 15 18 22 30 24 25 33 39 30 24 28 26 29 38 46 48 47
37 36 31 29 26 24 23 24 24 25 24 23 23 25 28 22 19 32 36 37 41 46 38 36 30 30 34 36 36 38 39 47 54
35 37 35 32 30 28 29 28 27 28 30 32 32 33 34 36 41 42 39 43 42 42 48 47 51 55 56 55 52 44 40 41 47
Wind_Direction_500mb
111 110 105 107 108 105 104 108 107 105 98 90 75 64 60 64 71 80 82 81 74 72 78 70 70 71 72 78 81 84 88 89 93
115 112 109 105 104 106 106 112 115 112 110 93 77 65 62 64 68 77 81 79 76 69 71 75 74 71 69 73 79 84 87 88 87
121 116 109 106 106 106 108 113 119 120 114 90 70 48 53 71 71 76 82 84 87 84 71 69 75 81 73 69 73 79 84 85 86
126 121 116 113 111 109 110 115 121 126 135 107 65 61 65 71 74 76 77 79 85 90 92 83 75 78 85 79 72 76 80 82 79
133 129 125 122 120 118 116 118 118 122 121 98 82 74 72 76 78 76 74 74 79 83 88 88 75 73 71 72 80 79 75 75 71
132 132 130 128 126 121 114 113 112 108 98 92 85 81 78 76 79 79 74 75 72 75 79 81 82 80 79 76 73 81 81 76 75
132 134 132 128 125 120 120 114 106 102 93 92 88 81 78 76 74 73 71 72 72 67 71 74 75 82 87 86 89 82 74 72 74
139 136 132 129 126 123 118 112 106 99 93 91 87 81 77 73 71 73 73 73 74 67 67 64 66 70 76 87 93 97 99 82 65
147 141 135 132 133 128 119 111 102 97 92 89 83 79 73 69 66 68 68 72 74 67 58 58 59 58 58 64 69 76 83 97 99
157 151 145 140 137 134 129 122 113 104 93 82 74 69 63 56 53 56 61 63 61 59 55 51 50 48 49 51 53 55 61 52 58
166 163 153 147 144 141 137 131 119 106 85 69 56 59 54 47 45 41 43 49 49 47 45 40 34 29 26 23 24 30 35 35 19
171 171 165 161 158 157 150 142 133 119 98 60 39 29 29 34 32 36 36 42 33 32 34 27 24 21 13 7 6 2 359 359 1
178 179 176 177 174 175 169 164 157 156 142 53 10 3 360 2 6 24 26 14 15 25 16 14 14 10 7 359 356 350 341 332 325
197 186 186 185 185 190 189 194 193 181 177 228 297 321 322 320 332 351 359 356 4 350 351 354 352 351 354 349 346 343 338 326 317
204 195 192 195 198 206 206 212 213 222 236 272 265 309 287 292 299 315 326 342 332 334 339 341 336 338 336 339 336 338 332 326 319
208 205 204 206 208 213 221 226 228 245 277 292 295 310 320 302 292 264 267 292 310 316 320 324 326 326 327 326 324 327 326 324 324
214 216 214 209 213 217 224 233 240 253 270 284 301 307 302 316 264 231 242 273 287 281 284 301 308 305 306 309 310 314 315 319 322
213 213 214 215 216 226 236 244 252 256 264 274 277 287 269 283 257 240 252 276 272 278 286 300 294 277 283 291 298 304 303 306 309
212 215 217 221 224 230 240 245 250 257 267 270 271 275 272 272 268 275 279 279 278 288 290 293 280 286 292 294 288 286 294 297 300
210 215 218 222 228 232 238 248 261 271 277 281 283 281 277 273 270 280 275 272 276 279 285 284 281 284 287 287 285 282 279 285 290
Wind_Speed_850mb
30 31 31 30 29 26 24 29 31 27 25 27 26 29 30 29 32 36 38 43 38 34 32 36 39 38 31 27 26 29 29 28 29
26 26 24 23 23 22 25 28 30 26 21 22 23 27 27 26 29 32 35 35 37 40 37 30 31 37 37 33 27 24 23 21 20
21 20 20 20 22 24 27 29 29 25 16 16 15 18 18 19 25 28 32 31 29 32 38 33 29 26 32 34 34 31 27 24 23
19 18 19 21 22 24 25 27 26 23 13 9 9 13 17 18 23 24 30 27 27 26 25 33 30 29 24 26 31 30 30 29 26
20 19 20 22 22 22 24 24 25 22 15 15 17 21 23 23 23 25 28 28 27 26 24 19 20 25 28 28 23 26 24 23 24
21 21 23 23 24 26 28 28 25 23 25 28 29 30 34 31 30 33 30 29 29 27 24 21 20 20 20 21 23 20 20 21 21
20 24 28 29 29 30 30 31 29 26 31 32 31 34 36 36 36 38 36 33 32 30 28 25 23 20 19 17 16 17 16 15 13
22 28 32 33 30 32 31 31 30 28 28 29 29 31 32 34 34 35 34 36 35 35 35 32 28 23 20 15 13 12 10 13 12
25 29 32 33 34 31 28 25 25 24 23 24 25 27 29 30 30 30 29 29 29 29 30 31 30 27 25 21 15 10 8 8 9
26 28 30 30 31 28 26 23 21 20 20 19 20 23 25 26 26 25 24 24 25 26 27 27 28 28 27 25 21 15 10 4 1
26 29 28 29 26 25 22 19 16 15 14 15 15 18 19 21 22 21 19 19 21 23 25 25 25 25 24 23 22 19 14 7 3
25 28 29 27 25 22 20 18 14 11 10 9 11 14 17 20 23 21 17 14 15 18 23 25 25 26 28 27 23 20 17 11 6
24 26 29 27 24 21 16 13 12 10 6 1 5 10 14 16 21 19 17 18 14 13 21 24 24 29 32 31 29 25 22 19 15
26 27 31 29 24 21 17 12 9 7 6 4 4 9 12 15 15 16 18 17 11 17 25 26 28 31 34 35 35 32 29 25 22
30 29 30 28 25 22 18 15 13 10 7 5 4 6 10 17 17 16 14 14 15 20 25 30 35 39 40 42 36 39 38 32 28
33 30 29 27 27 24 21 18 14 11 11 12 13 14 7 10 18 17 14 12 15 20 23 24 28 36 40 45 42 41 41 40 34
36 35 32 30 29 27 23 19 17 15 16 17 20 11 21 14 12 18 20 17 17 19 20 24 28 25 26 33 42 47 45 43 44
38 36 33 27 26 23 22 22 21 19 19 19 18 9 8 15 15 18 22 30 24 25 33 39 30 24 28 26 29 38 46 48 47
37 36 31 29 26 24 23 24 24 25 24 23 23 25 28 22 19 32 36 37 41 46 38 36 30 30 34 36 36 38 39 47 54
35 37 35 32 30 28 29 28 27 28 30 32 32 33 34 36 41 42 39 43 42 42 48 47 51 55 56 55 52 44 40 41 47
Wind_Direction_850mb
111 110 105 107 108 105 104 108 107 105 98 90 75 64 60 64 71 80 82 81 74 72 78 70 70 71 72 78 81 84 88 89 93
115 112 109 105 104 106 106 112 115 112 110 93 77 65 62 64 68 77 81 79 76 69 71 75 74 71 69 73 79 84 87 88 87
121 116 109 106 106 106 108 113 119 120 114 90 70 48 53 71 71 76 82 84 87 84 71 69 75 81 73 69 73 79 84 85 86
126 121 116 113 111 109 110 115 121 126 135 107 65 61 65 71 74 76 77 79 85 90 92 83 75 78 85 79 72 76 80 82 79
133 129 125 122 120 118 116 118 118 122 121 98 82 74 72 76 78 76 74 74 79 83 88 88 75 73 71 72 80 79 75 75 71
132 132 130 128 126 121 114 113 112 108 98 92 85 81 78 76 79 79 74 75 72 75 79 81 82 80 79 76 73 81 81 76 75
132 134 132 128 125 120 120 114 106 102 93 92 88 81 78 76 74 73 71 72 72 67 71 74 75 82 87 86 89 82 74 72 74
139 136 132 129 126 123 118 112 106 99 93 91 87 81 77 73 71 73 73 73 74 67 67 64 66 70 76 87 93 97 99 82 65
147 141 135 132 133 128 119 111 102 97 92 89 83 79 73 69 66 68 68 72 74 67 58 58 59 58 58 64 69 76 83 97 99
157 151 145 140 137 134 129 122 113 104 93 82 74 69 63 56 53 56 61 63 61 59 55 51 50 48 49 51 53 55 61 52 58
166 163 153 147 144 141 137 131 119 106 85 69 56 59 54 47 45 41 43 49 49 47 45 40 34 29 26 23 24 30 35 35 19
171 171 165 161 158 157 150 142 133 119 98 60 39 29 29 34 32 36 36 42 33 32 34 27 24 21 13 7 6 2 359 359 1
178 179 176 177 174 175 169 164 157 156 142 53 10 3 360 2 6 24 26 14 15 25 16 14 14 10 7 359 356 350 341 332 325
197 186 186 185 185 190 189 194 193 181 177 228 297 321 322 320 332 351 359 356 4 350 351 354 352 351 354 349 346 343 338 326 317
204 195 192 195 198 206 206 212 213 222 236 272 265 309 287 292 299 315 326 342 332 334 339 341 336 338 336 339 336 338 332 326 319
208 205 204 206 208 213 221 226 228 245 277 292 295 310 320 302 292 264 267 292 310 316 320 324 326 326 327 326 324 327 326 324 324
214 216 214 209 213 217 224 233 240 253 270 284 301 307 302 316 264 231 242 273 287 281 284 301 308 305 306 309 310 314 315 319 322
213 213 214 215 216 226 236 244 252 256 264 274 277 287 269 283 257 240 252 276 272 278 286 300 294 277 283 291 298 304 303 306 309
212 215 217 221 224 230 240 245 250 257 267 270 271 275 272 272 268 275 279 279 278 288 290 293 280 286 292 294 288 286 294 297 300
210 215 218 222 228 232 238 248 261 271 277 281 283 281 277 273 270 280 275 272 276 279 285 284 281 284 287 287 285 282 279 285 290